Time,TemperatureF,DewpointF,PressureIn,WindDirection,WindDirectionDegrees,WindSpeedMPH,WindSpeedGustMPH,Humidity,HourlyPrecipIn,Conditions,Clouds,dailyrainin,SoftwareType,DateUTC
2013-02-10 00:00:00,69.0,-99.9,-100.00,ESE,123,21.0,-999.0,107,0.00,,,-99.99,,2013-02-10 00:00:00,
2013-02-10 00:22:00,69.0,-99.9,-100.00,ESE,123,21.0,-999.0,107,0.00,,,-99.99,,2013-02-10 00:22:00,
2013-02-10 00:32:00,69.0,-99.9,-100.00,ESE,123,21.0,-999.0,107,0.00,,,-99.99,,2013-02-10 00:32:00,
2013-02-10 00:42:00,69.0,-99.9,-100.00,ESE,123,21.0,-999.0,107,0.00,,,-99.99,,2013-02-10 00:42:00,
2013-02-10 00:52:00,69.0,-99.9,-100.00,ESE,123,21.0,-999.0,107,0.00,,,-99.99,,2013-02-10 00:52:00,
2013-02-10 01:00:00,69.0,-99.9,-100.00,SE,129,17.0,-999.0,107,0.00,,,-99.99,,2013-02-10 01:00:00,
2013-02-10 01:22:00,69.0,-99.9,-100.00,SE,129,17.0,-999.0,107,0.00,,,-99.99,,2013-02-10 01:22:00,
2013-02-10 01:32:00,69.0,-99.9,-100.00,SE,129,17.0,-999.0,107,0.00,,,-99.99,,2013-02-10 01:32:00,
2013-02-10 01:42:00,69.0,-99.9,-100.00,SE,129,17.0,-999.0,107,0.00,,,-99.99,,2013-02-10 01:42:00,
2013-02-10 01:52:00,69.0,-99.9,-100.00,SE,129,17.0,-999.0,107,0.00,,,-99.99,,2013-02-10 01:52:00,
2013-02-10 02:00:00,68.0,-99.9,-100.00,SE,132,15.0,-999.0,108,0.00,,,-99.99,,2013-02-10 02:00:00,
2013-02-10 02:22:00,68.0,-99.9,-100.00,SE,132,15.0,-999.0,108,0.00,,,-99.99,,2013-02-10 02:22:00,
2013-02-10 02:32:00,68.0,-99.9,-100.00,SE,132,15.0,-999.0,108,0.00,,,-99.99,,2013-02-10 02:32:00,
2013-02-10 02:42:00,68.0,-99.9,-100.00,SE,132,15.0,-999.0,108,0.00,,,-99.99,,2013-02-10 02:42:00,
2013-02-10 02:52:00,68.0,-99.9,-100.00,SE,132,15.0,-999.0,108,0.00,,,-99.99,,2013-02-10 02:52:00,
2013-02-10 03:00:00,68.0,-99.9,-100.00,SE,134,15.0,-999.0,109,0.00,,,-99.99,,2013-02-10 03:00:00,
2013-02-10 03:22:00,68.0,-99.9,-100.00,SE,134,15.0,-999.0,109,0.00,,,-99.99,,2013-02-10 03:22:00,
2013-02-10 03:32:00,68.0,-99.9,-100.00,SE,134,15.0,-999.0,109,0.00,,,-99.99,,2013-02-10 03:32:00,
2013-02-10 03:42:00,68.0,-99.9,-100.00,SE,134,15.0,-999.0,109,0.00,,,-99.99,,2013-02-10 03:42:00,
2013-02-10 03:52:00,68.0,-99.9,-100.00,SE,134,15.0,-999.0,109,0.00,,,-99.99,,2013-02-10 03:52:00,
2013-02-10 04:00:00,69.0,-99.9,-100.00,SE,134,16.0,-999.0,108,0.00,,,-99.99,,2013-02-10 04:00:00,
2013-02-10 04:22:00,69.0,-99.9,-100.00,SE,134,16.0,-999.0,108,0.00,,,-99.99,,2013-02-10 04:22:00,
2013-02-10 04:32:00,69.0,-99.9,-100.00,SE,134,16.0,-999.0,108,0.00,,,-99.99,,2013-02-10 04:32:00,
2013-02-10 04:42:00,69.0,-99.9,-100.00,SE,134,16.0,-999.0,108,0.00,,,-99.99,,2013-02-10 04:42:00,
2013-02-10 04:52:00,69.0,-99.9,-100.00,SE,134,16.0,-999.0,108,0.00,,,-99.99,,2013-02-10 04:52:00,
2013-02-10 05:00:00,69.0,-99.9,-100.00,SE,134,16.0,-999.0,109,0.00,,,-99.99,,2013-02-10 05:00:00,
2013-02-10 05:23:00,69.0,-99.9,-100.00,SE,134,16.0,-999.0,109,0.00,,,-99.99,,2013-02-10 05:23:00,
2013-02-10 05:32:00,69.0,-99.9,-100.00,SE,134,16.0,-999.0,109,0.00,,,-99.99,,2013-02-10 05:32:00,
2013-02-10 05:42:00,69.0,-99.9,-100.00,SE,134,16.0,-999.0,109,0.00,,,-99.99,,2013-02-10 05:42:00,
2013-02-10 05:52:00,69.0,-99.9,-100.00,SE,134,16.0,-999.0,109,0.00,,,-99.99,,2013-02-10 05:52:00,
2013-02-10 06:00:00,69.0,-99.9,-100.00,SE,140,17.0,-999.0,109,0.00,,,-99.99,,2013-02-10 06:00:00,
2013-02-10 06:22:00,69.0,-99.9,-100.00,SE,140,17.0,-999.0,109,0.00,,,-99.99,,2013-02-10 06:22:00,
2013-02-10 06:32:00,69.0,-99.9,-100.00,SE,140,17.0,-999.0,109,0.00,,,-99.99,,2013-02-10 06:32:00,
2013-02-10 06:42:00,69.0,-99.9,-100.00,SE,140,17.0,-999.0,109,0.00,,,-99.99,,2013-02-10 06:42:00,
2013-02-10 06:52:00,69.0,-99.9,-100.00,SE,140,17.0,-999.0,109,0.00,,,-99.99,,2013-02-10 06:52:00,
2013-02-10 07:00:00,69.0,-99.9,-100.00,SE,137,20.0,-999.0,109,0.00,,,-99.99,,2013-02-10 07:00:00,
2013-02-10 07:21:00,69.0,-99.9,-100.00,SE,137,20.0,-999.0,109,0.00,,,-99.99,,2013-02-10 07:21:00,
2013-02-10 07:32:00,69.0,-99.9,-100.00,SE,137,20.0,-999.0,109,0.00,,,-99.99,,2013-02-10 07:32:00,
2013-02-10 07:42:00,69.0,-99.9,-100.00,SE,137,20.0,-999.0,109,0.00,,,-99.99,,2013-02-10 07:42:00,
2013-02-10 07:52:00,69.0,-99.9,-100.00,SE,137,20.0,-999.0,109,0.00,,,-99.99,,2013-02-10 07:52:00,
2013-02-10 08:00:00,69.0,-99.9,-100.00,SSE,152,18.0,-999.0,110,0.00,,,-99.99,,2013-02-10 08:00:00,
2013-02-10 08:22:00,69.0,-99.9,-100.00,SSE,152,18.0,-999.0,110,0.00,,,-99.99,,2013-02-10 08:22:00,
2013-02-10 08:32:00,69.0,-99.9,-100.00,SSE,152,18.0,-999.0,110,0.00,,,-99.99,,2013-02-10 08:32:00,
2013-02-10 08:43:00,69.0,-99.9,-100.00,SSE,152,18.0,-999.0,110,0.00,,,-99.99,,2013-02-10 08:43:00,
2013-02-10 08:52:00,69.0,-99.9,-100.00,SSE,152,18.0,-999.0,110,0.00,,,-99.99,,2013-02-10 08:52:00,
2013-02-10 09:00:00,69.0,-99.9,-100.00,SSE,153,18.0,-999.0,108,0.00,,,-99.99,,2013-02-10 09:00:00,
2013-02-10 09:22:00,69.0,-99.9,-100.00,SSE,153,18.0,-999.0,108,0.00,,,-99.99,,2013-02-10 09:22:00,
2013-02-10 09:32:00,69.0,-99.9,-100.00,SSE,153,18.0,-999.0,108,0.00,,,-99.99,,2013-02-10 09:32:00,
2013-02-10 09:42:00,69.0,-99.9,-100.00,SSE,153,18.0,-999.0,108,0.00,,,-99.99,,2013-02-10 09:42:00,
2013-02-10 09:52:00,69.0,-99.9,-100.00,SSE,153,18.0,-999.0,108,0.00,,,-99.99,,2013-02-10 09:52:00,
2013-02-10 10:00:00,69.0,-99.9,-100.00,SE,140,15.0,-999.0,109,0.00,,,-99.99,,2013-02-10 10:00:00,
2013-02-10 10:21:00,69.0,-99.9,-100.00,SE,140,15.0,-999.0,109,0.00,,,-99.99,,2013-02-10 10:21:00,
2013-02-10 10:32:00,69.0,-99.9,-100.00,SE,140,15.0,-999.0,109,0.00,,,-99.99,,2013-02-10 10:32:00,
2013-02-10 10:42:00,69.0,-99.9,-100.00,SE,140,15.0,-999.0,109,0.00,,,-99.99,,2013-02-10 10:42:00,
2013-02-10 10:52:00,69.0,-99.9,-100.00,SE,140,15.0,-999.0,109,0.00,,,-99.99,,2013-02-10 10:52:00,
2013-02-10 11:00:00,69.0,-99.9,-100.00,SSE,147,10.0,-999.0,110,0.00,,,-99.99,,2013-02-10 11:00:00,
2013-02-10 11:22:00,69.0,-99.9,-100.00,SSE,147,10.0,-999.0,110,0.00,,,-99.99,,2013-02-10 11:22:00,
2013-02-10 11:32:00,69.0,-99.9,-100.00,SSE,147,10.0,-999.0,110,0.00,,,-99.99,,2013-02-10 11:32:00,
2013-02-10 11:42:00,69.0,-99.9,-100.00,SSE,147,10.0,-999.0,110,0.00,,,-99.99,,2013-02-10 11:42:00,
2013-02-10 11:52:00,69.0,-99.9,-100.00,SSE,147,10.0,-999.0,110,0.00,,,-99.99,,2013-02-10 11:52:00,
2013-02-10 12:00:00,68.0,-99.9,-100.00,SE,140,7.0,-999.0,110,0.00,,,-99.99,,2013-02-10 12:00:00,
2013-02-10 12:22:00,68.0,-99.9,-100.00,SE,140,7.0,-999.0,110,0.00,,,-99.99,,2013-02-10 12:22:00,
2013-02-10 12:32:00,68.0,-99.9,-100.00,SE,140,7.0,-999.0,110,0.00,,,-99.99,,2013-02-10 12:32:00,
2013-02-10 12:42:00,68.0,-99.9,-100.00,SE,140,7.0,-999.0,110,0.00,,,-99.99,,2013-02-10 12:42:00,
2013-02-10 12:52:00,68.0,-99.9,-100.00,SE,140,7.0,-999.0,110,0.00,,,-99.99,,2013-02-10 12:52:00,
2013-02-10 13:00:00,69.0,-99.9,-100.00,SE,133,13.0,-999.0,109,0.00,,,-99.99,,2013-02-10 13:00:00,
2013-02-10 13:22:00,69.0,-99.9,-100.00,SE,133,13.0,-999.0,109,0.00,,,-99.99,,2013-02-10 13:22:00,
2013-02-10 13:32:00,69.0,-99.9,-100.00,SE,133,13.0,-999.0,109,0.00,,,-99.99,,2013-02-10 13:32:00,
2013-02-10 13:42:00,69.0,-99.9,-100.00,SE,133,13.0,-999.0,109,0.00,,,-99.99,,2013-02-10 13:42:00,
2013-02-10 13:52:00,69.0,-99.9,-100.00,SE,133,13.0,-999.0,109,0.00,,,-99.99,,2013-02-10 13:52:00,
2013-02-10 14:00:00,70.0,-99.9,-100.00,SSE,158,15.0,-999.0,107,0.00,,,-99.99,,2013-02-10 14:00:00,
2013-02-10 14:22:00,70.0,-99.9,-100.00,SSE,158,15.0,-999.0,107,0.00,,,-99.99,,2013-02-10 14:22:00,
2013-02-10 14:32:00,70.0,-99.9,-100.00,SSE,158,15.0,-999.0,107,0.00,,,-99.99,,2013-02-10 14:32:00,
2013-02-10 14:42:00,70.0,-99.9,-100.00,SSE,158,15.0,-999.0,107,0.00,,,-99.99,,2013-02-10 14:42:00,
2013-02-10 14:52:00,70.0,-99.9,-100.00,SSE,158,15.0,-999.0,107,0.00,,,-99.99,,2013-02-10 14:52:00,
2013-02-10 15:00:00,69.0,-99.9,-100.00,SSE,159,12.0,-999.0,108,0.00,,,-99.99,,2013-02-10 15:00:00,
2013-02-10 15:22:00,69.0,-99.9,-100.00,SSE,159,12.0,-999.0,108,0.00,,,-99.99,,2013-02-10 15:22:00,
2013-02-10 15:32:00,69.0,-99.9,-100.00,SSE,159,12.0,-999.0,108,0.00,,,-99.99,,2013-02-10 15:32:00,
2013-02-10 15:42:00,69.0,-99.9,-100.00,SSE,159,12.0,-999.0,108,0.00,,,-99.99,,2013-02-10 15:42:00,
2013-02-10 15:52:00,69.0,-99.9,-100.00,SSE,159,12.0,-999.0,108,0.00,,,-99.99,,2013-02-10 15:52:00,
2013-02-10 16:00:00,69.0,-99.9,-100.00,SSE,161,7.0,-999.0,107,0.00,,,-99.99,,2013-02-10 16:00:00,
2013-02-10 16:22:00,69.0,-99.9,-100.00,SSE,161,7.0,-999.0,107,0.00,,,-99.99,,2013-02-10 16:22:00,
2013-02-10 16:32:00,69.0,-99.9,-100.00,SSE,161,7.0,-999.0,107,0.00,,,-99.99,,2013-02-10 16:32:00,
2013-02-10 16:42:00,69.0,-99.9,-100.00,SSE,161,7.0,-999.0,107,0.00,,,-99.99,,2013-02-10 16:42:00,
2013-02-10 16:52:00,69.0,-99.9,-100.00,SSE,161,7.0,-999.0,107,0.00,,,-99.99,,2013-02-10 16:52:00,
2013-02-10 17:00:00,69.0,-99.9,-100.00,North,5,2.0,-999.0,107,0.00,,,-99.99,,2013-02-10 17:00:00,
2013-02-10 17:22:00,69.0,-99.9,-100.00,North,5,2.0,-999.0,107,0.00,,,-99.99,,2013-02-10 17:22:00,
2013-02-10 17:32:00,69.0,-99.9,-100.00,North,5,2.0,-999.0,107,0.00,,,-99.99,,2013-02-10 17:32:00,
2013-02-10 17:42:00,69.0,-99.9,-100.00,North,5,2.0,-999.0,107,0.00,,,-99.99,,2013-02-10 17:42:00,
2013-02-10 17:53:00,69.0,-99.9,-100.00,North,5,2.0,-999.0,107,0.00,,,-99.99,,2013-02-10 17:53:00,
2013-02-10 18:00:00,68.0,-99.9,-100.00,ESE,106,5.0,-999.0,108,0.00,,,-99.99,,2013-02-10 18:00:00,
2013-02-10 18:22:00,68.0,-99.9,-100.00,ESE,106,5.0,-999.0,108,0.00,,,-99.99,,2013-02-10 18:22:00,
2013-02-10 18:32:00,68.0,-99.9,-100.00,ESE,106,5.0,-999.0,108,0.00,,,-99.99,,2013-02-10 18:32:00,
2013-02-10 18:42:00,68.0,-99.9,-100.00,ESE,106,5.0,-999.0,108,0.00,,,-99.99,,2013-02-10 18:42:00,
2013-02-10 18:52:00,68.0,-99.9,-100.00,ESE,106,5.0,-999.0,108,0.00,,,-99.99,,2013-02-10 18:52:00,
2013-02-10 19:00:00,69.0,-99.9,-100.00,SE,127,5.0,-999.0,106,0.00,,,-99.99,,2013-02-10 19:00:00,
2013-02-10 19:22:00,69.0,-99.9,-100.00,SE,127,5.0,-999.0,106,0.00,,,-99.99,,2013-02-10 19:22:00,
2013-02-10 19:32:00,69.0,-99.9,-100.00,SE,127,5.0,-999.0,106,0.00,,,-99.99,,2013-02-10 19:32:00,
2013-02-10 19:43:00,69.0,-99.9,-100.00,SE,127,5.0,-999.0,106,0.00,,,-99.99,,2013-02-10 19:43:00,
2013-02-10 19:52:00,69.0,-99.9,-100.00,SE,127,5.0,-999.0,106,0.00,,,-99.99,,2013-02-10 19:52:00,
2013-02-10 20:00:00,68.0,55.0,-100.00,NNE,18,17.0,-999.0,64,0.00,,,-99.99,,2013-02-10 20:00:00,
2013-02-10 20:22:00,68.0,55.0,-100.00,NNE,18,17.0,-999.0,64,0.00,,,-99.99,,2013-02-10 20:22:00,
2013-02-10 20:32:00,68.0,55.0,-100.00,NNE,18,17.0,-999.0,64,0.00,,,-99.99,,2013-02-10 20:32:00,
2013-02-10 20:42:00,68.0,55.0,-100.00,NNE,18,17.0,-999.0,64,0.00,,,-99.99,,2013-02-10 20:42:00,
2013-02-10 20:52:00,68.0,55.0,-100.00,NNE,18,17.0,-999.0,64,0.00,,,-99.99,,2013-02-10 20:52:00,
2013-02-10 21:00:00,67.0,57.0,-100.00,NNE,26,19.0,-999.0,71,0.00,,,-99.99,,2013-02-10 21:00:00,
2013-02-10 21:22:00,67.0,57.0,-100.00,NNE,26,19.0,-999.0,71,0.00,,,-99.99,,2013-02-10 21:22:00,
2013-02-10 21:32:00,67.0,57.0,-100.00,NNE,26,19.0,-999.0,71,0.00,,,-99.99,,2013-02-10 21:32:00,
2013-02-10 21:42:00,67.0,57.0,-100.00,NNE,26,19.0,-999.0,71,0.00,,,-99.99,,2013-02-10 21:42:00,
2013-02-10 21:52:00,67.0,57.0,-100.00,NNE,26,19.0,-999.0,71,0.00,,,-99.99,,2013-02-10 21:52:00,
2013-02-10 22:00:00,67.0,55.0,-100.00,NNE,29,20.0,-999.0,65,0.00,,,-99.99,,2013-02-10 22:00:00,
2013-02-10 22:22:00,67.0,55.0,-100.00,NNE,29,20.0,-999.0,65,0.00,,,-99.99,,2013-02-10 22:22:00,
2013-02-10 22:32:00,67.0,55.0,-100.00,NNE,29,20.0,-999.0,65,0.00,,,-99.99,,2013-02-10 22:32:00,
2013-02-10 22:42:00,67.0,55.0,-100.00,NNE,29,20.0,-999.0,65,0.00,,,-99.99,,2013-02-10 22:42:00,
2013-02-10 22:52:00,67.0,55.0,-100.00,NNE,29,20.0,-999.0,65,0.00,,,-99.99,,2013-02-10 22:52:00,
2013-02-10 23:00:00,67.0,53.0,-100.00,NNE,32,20.0,-999.0,60,0.00,,,-99.99,,2013-02-10 23:00:00,
2013-02-10 23:22:00,67.0,53.0,-100.00,NNE,32,20.0,-999.0,60,0.00,,,-99.99,,2013-02-10 23:22:00,
2013-02-10 23:32:00,67.0,53.0,-100.00,NNE,32,20.0,-999.0,60,0.00,,,-99.99,,2013-02-10 23:32:00,
2013-02-10 23:42:00,67.0,53.0,-100.00,NNE,32,20.0,-999.0,60,0.00,,,-99.99,,2013-02-10 23:42:00,
2013-02-10 23:52:00,67.0,53.0,-100.00,NNE,32,20.0,-999.0,60,0.00,,,-99.99,,2013-02-10 23:52:00,